NI4CE-10 Weather Reports


time (UTC)temp
C
wind
direction
speed
KPH
gust
KPH
rain 1hr
cm
rain 24hr
cm
rain mn
cm
humidity
%
barometer
mb
20260510143018 31 234 9.7 16.1 0.00 0.00 0.00 100 1019.5
20260510142518 30 210 8.0 11.3 0.00 0.00 0.00 100 1019.5
20260510142252 30 180 9.7 12.9 0.00 0.00 0.00 100 1019.5
20260510142018 30 180 9.7 12.9 0.00 0.00 0.00 100 1019.5
20260510141803 30 205 1.6 12.9 0.00 0.00 0.00 100 1019.5
20260510141518 30 205 1.6 12.9 0.00 0.00 0.00 100 1019.5
20260510141018 30 194 4.8 14.5 0.00 0.00 0.00 100 1019.3
20260510140518 30 217 4.8 9.7 0.00 0.00 0.00 100 1019.3
20260510140018 30 180 4.8 8.0 0.00 0.00 0.00 100 1019.2
20260510135843 30 157 4.8 8.0 0.00 0.00 0.00 100 1019.2
20260510135518 30 157 4.8 8.0 0.00 0.00 0.00 100 1019.2
20260510135018 30 198 0.0 8.0 0.00 0.00 0.00 100 1019.2
20260510135002 29 247 4.8 8.0 0.00 0.00 0.00 100 1019.2
20260510134518 29 247 4.8 8.0 0.00 0.00 0.00 100 1019.2
20260510134018 28 217 4.8 8.0 0.00 0.00 0.00 100 1019.2
20260510133518 28 226 3.2 4.8 0.00 0.00 0.00 100 1019.3
20260510133019 28 202 3.2 4.8 0.00 0.00 0.00 100 1019.2
20260510132518 27 57 0.0 0.0 0.00 0.00 0.00 100 1019.2
20260510132018 27 57 0.0 0.0 0.00 0.00 0.00 100 1019.3
20260510131716 26 57 0.0 0.0 0.00 0.00 0.00 100 1019.2
20260510131518 26 57 0.0 0.0 0.00 0.00 0.00 100 1019.2
20260510131246 26 57 0.0 0.0 0.00 0.00 0.00 100 1019.3
20260510131018 26 57 0.0 0.0 0.00 0.00 0.00 100 1019.3
20260510130518 26 57 0.0 0.0 0.00 0.00 0.00 100 1019.2
20260510130134 26 57 0.0 0.0 0.00 0.00 0.00 100 1019.2
20260510130018 26 57 0.0 0.0 0.00 0.00 0.00 100 1019.2
20260510125518 26 57 0.0 0.0 0.00 0.00 0.00 100 1019.1
20260510125018 25 57 0.0 0.0 0.00 0.00 0.00 100 1019.1
20260510124518 25 57 0.0 0.0 0.00 0.00 0.00 100 1019.1
20260510124018 25 57 0.0 0.0 0.00 0.00 0.00 100 1019.1
20260510123655 25 57 0.0 0.0 0.00 0.00 0.00 100 1019.1
20260510123518 25 57 0.0 0.0 0.00 0.00 0.00 100 1019.1
20260510123150 24 57 0.0 0.0 0.00 0.00 0.00 100 1019.0
20260510123018 24 57 0.0 0.0 0.00 0.00 0.00 100 1019.0
20260510122802 24 57 0.0 0.0 0.00 0.00 0.00 100 1018.9
20260510122518 24 57 0.0 0.0 0.00 0.00 0.00 100 1018.9
20260510122018 23 57 0.0 0.0 0.00 0.00 0.00 100 1018.8
20260510121518 23 57 0.0 0.0 0.00 0.00 0.00 100 1018.8
20260510121018 23 57 0.0 0.0 0.00 0.00 0.00 100 1018.8
20260510120809 23 57 0.0 0.0 0.00 0.00 0.00 100 1018.6
20260510120518 23 57 0.0 0.0 0.00 0.00 0.00 100 1018.6
20260510120018 23 57 0.0 0.0 0.00 0.00 0.00 100 1018.4
20260510115518 22 57 0.0 0.0 0.00 0.00 0.00 100 1018.4
20260510115018 22 57 0.0 0.0 0.00 0.00 0.00 100 1018.3
20260510114518 22 57 0.0 0.0 0.00 0.00 0.00 100 1018.3
20260510114018 22 57 0.0 0.0 0.00 0.00 0.00 100 1018.3
20260510113740 22 57 0.0 0.0 0.00 0.00 0.00 100 1018.0
20260510113518 22 57 0.0 0.0 0.00 0.00 0.00 100 1018.0
20260510113018 22 57 0.0 0.0 0.00 0.00 0.00 100 1017.9
20260510112518 22 57 0.0 0.0 0.00 0.00 0.00 100 1017.8
20260510112018 22 57 0.0 0.0 0.00 0.00 0.00 100 1017.7
20260510111518 22 57 0.0 0.0 0.00 0.00 0.00 100 1017.5
20260510111018 22 57 0.0 0.0 0.00 0.00 0.00 100 1017.4
20260510110518 22 57 0.0 0.0 0.00 0.00 0.00 100 1017.2
20260510110116 22 57 0.0 0.0 0.00 0.00 0.00 100 1017.0
20260510110018 22 57 0.0 0.0 0.00 0.00 0.00 100 1017.0
20260510105518 22 57 0.0 0.0 0.00 0.00 0.00 100 1017.0
20260510105018 22 57 0.0 0.0 0.00 0.00 0.00 100 1016.8
20260510104518 22 57 0.0 0.0 0.00 0.00 0.00 100 1016.7
20260510104253 22 57 0.0 0.0 0.00 0.00 0.00 100 1016.6
20260510104018 22 57 0.0 0.0 0.00 0.00 0.00 100 1016.6
20260510103720 22 57 0.0 1.6 0.00 0.00 0.00 100 1016.6
20260510103519 22 57 0.0 1.6 0.00 0.00 0.00 100 1016.6
20260510103019 22 104 0.0 6.4 0.00 0.00 0.00 100 1016.5
20260510102730 22 92 4.8 11.3 0.00 0.00 0.00 100 1016.2
20260510102656 22 92 4.8 11.3 0.00 0.00 0.00 100 1016.2
20260510102519 22 92 4.8 11.3 0.00 0.00 0.00 100 1016.2
20260510102151 22 146 3.2 9.7 0.00 0.00 0.00 100 1016.3
20260510102019 22 146 3.2 9.7 0.00 0.00 0.00 100 1016.3
20260510101557 22 170 6.4 9.7 0.00 0.00 0.00 100 1016.3
20260510101519 22 170 6.4 9.7 0.00 0.00 0.00 100 1016.3
20260510101019 21 165 3.2 8.0 0.00 0.00 0.00 100 1016.3
20260510100731 21 181 4.8 6.4 0.00 0.00 0.00 100 1016.4
20260510100519 21 181 4.8 6.4 0.00 0.00 0.00 100 1016.4
20260510100019 21 178 3.2 3.2 0.00 0.00 0.00 100 1016.5
20260510095519 21 189 3.2 4.8 0.00 0.00 0.00 100 1016.5
20260510095019 21 181 1.6 4.8 0.00 0.00 0.00 100 1016.5
20260510094519 21 164 1.6 1.6 0.00 0.00 0.00 100 1016.6
20260510094019 21 136 0.0 1.6 0.00 0.00 0.00 100 1016.6
20260510093519 21 153 1.6 1.6 0.00 0.00 0.00 100 1016.7
20260510093019 21 113 0.0 3.2 0.00 0.00 0.00 100 1016.7
20260510092519 21 122 0.0 1.6 0.00 0.00 0.00 100 1016.7
20260510092019 21 154 0.0 0.0 0.00 0.00 0.00 100 1016.7
20260510091519 21 154 0.0 1.6 0.00 0.00 0.00 100 1016.7
20260510091019 21 151 0.0 0.0 0.00 0.00 0.00 100 1016.7
20260510090603 21 151 0.0 0.0 0.00 0.00 0.00 100 1016.7
20260510090519 21 151 0.0 0.0 0.00 0.00 0.00 100 1016.7
20260510090019 21 151 0.0 0.0 0.00 0.00 0.00 100 1016.6
20260510085519 21 151 0.0 1.6 0.00 0.00 0.00 100 1016.6
20260510085331 21 78 0.0 1.6 0.00 0.00 0.00 100 1016.5
20260510085019 21 78 0.0 1.6 0.00 0.00 0.00 100 1016.5
20260510084633 21 163 1.6 1.6 0.00 0.00 0.00 100 1016.5
20260510084519 21 163 1.6 1.6 0.00 0.00 0.00 100 1016.5
20260510084019 21 50 0.0 1.6 0.00 0.00 0.00 100 1016.5
20260510083731 21 80 0.0 1.6 0.00 0.00 0.00 100 1016.5
20260510083519 21 80 0.0 1.6 0.00 0.00 0.00 100 1016.5
20260510083019 21 78 0.0 0.0 0.00 0.00 0.00 100 1016.6
20260510082712 21 78 0.0 0.0 0.00 0.00 0.00 100 1016.7
20260510082519 21 78 0.0 0.0 0.00 0.00 0.00 100 1016.6
20260510082201 21 78 0.0 0.0 0.00 0.00 0.00 100 1016.6
20260510082019 21 78 0.0 0.0 0.00 0.00 0.00 100 1016.6
20260510081519 21 78 0.0 0.0 0.00 0.00 0.00 100 1016.7
20260510081154 22 78 0.0 0.0 0.00 0.00 0.00 100 1016.7
20260510081019 22 78 0.0 0.0 0.00 0.00 0.00 100 1016.7
20260510080519 22 78 0.0 1.6 0.00 0.00 0.00 100 1016.6
20260510080057 22 70 0.0 3.2 0.00 0.00 0.00 100 1016.6
20260510080019 22 70 0.0 3.2 0.00 0.00 0.00 100 1016.6
20260510075823 22 104 1.6 3.2 0.00 0.00 0.00 100 1016.7
20260510075519 22 104 1.6 3.2 0.00 0.00 0.00 100 1016.7
20260510075309 22 99 1.6 3.2 0.00 0.00 0.00 100 1016.7
20260510075019 22 99 1.6 3.2 0.00 0.00 0.00 100 1016.7
20260510074519 22 108 1.6 1.6 0.00 0.00 0.00 100 1016.7
20260510074122 22 97 1.6 1.6 0.00 0.00 0.00 100 1016.8
20260510074019 22 97 1.6 1.6 0.00 0.00 0.00 100 1016.8
20260510073519 22 67 0.0 1.6 0.00 0.00 0.00 100 1016.8
20260510073019 22 67 1.6 6.4 0.00 0.00 0.00 100 1016.9
20260510072519 22 104 0.0 0.0 0.00 0.00 0.00 100 1016.8
20260510072019 22 227 0.0 0.0 0.00 0.00 0.00 100 1016.8
20260510071758 22 227 0.0 0.0 0.00 0.00 0.00 100 1016.9
20260510071519 22 227 0.0 0.0 0.00 0.00 0.00 100 1016.9
20260510071406 22 227 0.0 0.0 0.00 0.00 0.00 100 1016.8
20260510071019 22 227 0.0 0.0 0.00 0.00 0.00 100 1016.8
20260510070619 22 227 0.0 0.0 0.00 0.00 0.00 100 1016.8
20260510070519 22 227 0.0 0.0 0.00 0.00 0.00 100 1016.8
20260510070128 22 227 0.0 0.0 0.00 0.00 0.00 100 1016.8
20260510070019 22 227 0.0 0.0 0.00 0.00 0.00 100 1016.8
20260510065735 22 227 0.0 0.0 0.00 0.00 0.00 100 1016.9
20260510065519 22 227 0.0 0.0 0.00 0.00 0.00 100 1016.9
20260510065409 22 227 0.0 0.0 0.00 0.00 0.00 100 1017.0
20260510065019 22 227 0.0 0.0 0.00 0.00 0.00 100 1017.0
20260510064802 23 227 0.0 0.0 0.00 0.00 0.00 100 1016.9
20260510064520 23 227 0.0 0.0 0.00 0.00 0.00 100 1016.9
20260510064243 23 227 0.0 0.0 0.00 0.00 0.00 100 1017.0
20260510064019 23 227 0.0 0.0 0.00 0.00 0.00 100 1017.0
20260510063519 23 227 0.0 0.0 0.00 0.00 0.00 100 1017.0
20260510063225 22 217 0.0 1.6 0.00 0.00 0.00 100 1017.1
20260510063155 22 227 0.0 0.0 0.00 0.00 0.00 100 1017.0
20260510063020 22 227 0.0 0.0 0.00 0.00 0.00 100 1017.0
20260510062520 22 217 0.0 1.6 0.00 0.00 0.00 100 1017.1
20260510062321 23 194 0.0 0.0 0.00 0.00 0.00 100 1017.1
20260510062020 23 194 0.0 0.0 0.00 0.00 0.00 100 1017.1
20260510061633 23 194 0.0 0.0 0.00 0.00 0.00 100 1017.1
20260510061520 23 194 0.0 0.0 0.00 0.00 0.00 100 1017.1
20260510061515 22 194 0.0 0.0 0.00 0.00 0.00 100 1017.2
20260510061235 22 194 0.0 0.0 0.00 0.00 0.00 100 1017.2
20260510061020 22 194 0.0 0.0 0.00 0.00 0.00 100 1017.2
20260510060840 22 194 0.0 0.0 0.00 0.00 0.00 100 1017.2
20260510060520 22 194 0.0 0.0 0.00 0.00 0.00 100 1017.2
20260510060129 22 194 0.0 0.0 0.00 0.00 0.00 100 1017.3
20260510060020 22 194 0.0 0.0 0.00 0.00 0.00 100 1017.3
20260510055848 23 194 0.0 0.0 0.00 0.00 0.00 100 1017.3
20260510055659 23 194 0.0 0.0 0.00 0.00 0.00 100 1017.3
20260510055520 23 194 0.0 0.0 0.00 0.00 0.00 100 1017.3
20260510055133 23 194 0.0 0.0 0.00 0.00 0.00 100 1017.4
20260510055020 23 194 0.0 0.0 0.00 0.00 0.00 100 1017.4
20260510054755 22 194 0.0 0.0 0.00 0.00 0.00 100 1017.4
20260510054520 22 194 0.0 0.0 0.00 0.00 0.00 100 1017.4
20260510054020 22 194 0.0 0.0 0.00 0.00 0.00 100 1017.4
20260510053520 22 194 0.0 0.0 0.00 0.00 0.00 100 1017.5
20260510053410 23 194 0.0 0.0 0.00 0.00 0.00 100 1017.6
20260510053324 23 194 0.0 0.0 0.00 0.00 0.00 100 1017.6
20260510053020 23 194 0.0 0.0 0.00 0.00 0.00 100 1017.6
20260510052653 23 303 0.0 0.0 0.00 0.00 0.00 100 1017.7
20260510052520 23 303 0.0 0.0 0.00 0.00 0.00 100 1017.7
20260510052020 23 303 0.0 0.0 0.00 0.00 0.00 100 1017.7
20260510051520 23 303 0.0 0.0 0.00 0.00 0.00 100 1017.8
20260510051020 23 303 0.0 0.0 0.00 0.00 0.00 100 1017.9
20260510050615 22 303 0.0 0.0 0.00 0.00 0.00 100 1018.0
20260510050520 22 303 0.0 0.0 0.00 0.00 0.00 100 1017.9
20260510050231 22 303 0.0 0.0 0.00 0.00 0.00 100 1017.9
20260510050020 22 303 0.0 0.0 0.00 0.00 0.00 100 1017.9
20260510045617 22 303 0.0 0.0 0.00 0.00 0.00 100 1018.1
20260510045520 22 303 0.0 0.0 0.00 0.00 0.00 100 1018.0
20260510045020 22 303 0.0 0.0 0.00 0.00 0.00 100 1018.0
20260510044813 22 303 0.0 0.0 0.00 0.00 0.00 100 1018.1
20260510044520 22 303 0.0 0.0 0.00 0.00 0.00 100 1018.1
20260510044115 22 303 0.0 0.0 0.00 0.00 0.00 100 1018.2
20260510044020 22 303 0.0 0.0 0.00 0.00 0.00 100 1018.1
20260510043520 22 303 0.0 0.0 0.00 0.00 0.00 100 1018.2
20260510043457 22 303 0.0 0.0 0.00 0.00 0.00 100 1018.3
20260510043020 22 303 0.0 0.0 0.00 0.00 0.00 100 1018.3
20260510042520 22 303 0.0 0.0 0.00 0.00 0.00 100 1018.2
20260510042020 22 303 0.0 0.0 0.00 0.00 0.00 100 1018.2
20260510041520 22 303 0.0 0.0 0.00 0.00 0.00 100 1018.2
20260510041151 22 303 0.0 0.0 0.00 0.00 0.00 100 1018.2
20260510041020 22 303 0.0 0.0 0.00 0.00 0.00 100 1018.2
20260510040930 22 303 0.0 0.0 0.00 0.00 0.00 100 1018.2
20260510040520 22 303 0.0 0.0 0.00 0.00 0.00 100 1018.2
20260510040020 22 303 0.0 0.0 0.00 0.00 0.00 100 1018.2
20260510035520 22 303 0.0 0.0 0.00 0.00 0.00 100 1018.1
20260510035223 22 303 0.0 0.0 0.00 0.00 0.00 100 1018.0
20260510035020 22 303 0.0 0.0 0.00 0.00 0.00 100 1018.0
20260510034615 22 303 0.0 0.0 0.00 0.00 0.00 100 1018.0
20260510034520 22 303 0.0 0.0 0.00 0.00 0.00 100 1018.0
20260510034115 22 303 0.0 0.0 0.00 0.00 0.00 100 1018.0
20260510034020 22 303 0.0 0.0 0.00 0.00 0.00 100 1018.0
20260510033520 22 303 0.0 0.0 0.00 0.00 0.00 100 1018.0
20260510033343 22 303 0.0 0.0 0.00 0.00 0.00 100 1018.0
20260510033020 22 303 0.0 0.0 0.00 0.00 0.00 100 1017.9
20260510032520 22 303 0.0 0.0 0.00 0.00 0.00 100 1018.0
20260510032518 22 303 0.0 0.0 0.00 0.00 0.00 100 1017.9
20260510032020 22 303 0.0 0.0 0.00 0.00 0.00 100 1017.9
20260510031759 22 303 0.0 0.0 0.00 0.00 0.00 100 1017.9
20260510031557 22 303 0.0 0.0 0.00 0.00 0.00 100 1017.8
20260510031520 22 303 0.0 0.0 0.00 0.00 0.00 100 1017.9
20260510031458 22 303 0.0 0.0 0.00 0.00 0.00 100 1017.8
20260510031020 22 303 0.0 0.0 0.00 0.00 0.00 100 1017.8
20260510030520 22 303 0.0 0.0 0.00 0.00 0.00 100 1017.9
20260510030057 23 303 0.0 0.0 0.00 0.00 0.00 100 1017.7
20260510030020 23 303 0.0 0.0 0.00 0.00 0.00 100 1017.7
20260510025520 23 303 0.0 0.0 0.00 0.00 0.00 100 1017.7
20260510025020 23 303 0.0 0.0 0.00 0.00 0.00 100 1017.7
20260510024520 23 303 0.0 0.0 0.00 0.00 0.00 100 1017.7
20260510024020 23 303 0.0 0.0 0.00 0.00 0.00 100 1017.7
20260510024002 23 303 0.0 0.0 0.00 0.00 0.00 100 1017.6
20260510023709 23 303 0.0 0.0 0.00 0.00 0.00 100 1017.5
20260510023521 23 303 0.0 0.0 0.00 0.00 0.00 100 1017.6
20260510023021 23 303 0.0 0.0 0.00 0.00 0.00 100 1017.5
20260510022959 23 303 0.0 0.0 0.00 0.00 0.00 100 1017.5
20260510022521 23 303 0.0 0.0 0.00 0.00 0.00 100 1017.5
20260510022021 23 303 0.0 0.0 0.00 0.00 0.00 100 1017.4
20260510022012 23 303 0.0 0.0 0.00 0.00 0.00 100 1017.3
20260510021521 23 303 0.0 0.0 0.00 0.00 0.00 100 1017.3
20260510021021 23 303 0.0 0.0 0.00 0.00 0.00 100 1017.3
20260510020749 23 303 0.0 0.0 0.00 0.00 0.00 100 1017.2
20260510020521 23 303 0.0 0.0 0.00 0.00 0.00 100 1017.2
20260510020021 23 303 0.0 0.0 0.00 0.00 0.00 100 1017.2
20260510015521 23 303 0.0 0.0 0.00 0.00 0.00 100 1017.1
20260510015021 23 303 0.0 0.0 0.00 0.00 0.00 100 1017.0
20260510014616 23 303 0.0 0.0 0.00 0.00 0.00 100 1016.9
20260510014521 23 303 0.0 0.0 0.00 0.00 0.00 100 1016.9
20260510014052 24 303 0.0 0.0 0.00 0.00 0.00 100 1016.9
20260510014021 23 303 0.0 0.0 0.00 0.00 0.00 100 1016.9
20260510013616 24 303 0.0 0.0 0.00 0.00 0.00 100 1016.8
20260510013521 24 303 0.0 0.0 0.00 0.00 0.00 100 1016.9
20260510013021 24 303 0.0 0.0 0.00 0.00 0.00 100 1016.8
20260510012603 25 303 0.0 0.0 0.00 0.00 0.00 100 1016.8
20260510012521 24 303 0.0 0.0 0.00 0.00 0.00 100 1016.8
20260510012021 25 303 0.0 0.0 0.00 0.00 0.00 100 1016.8
20260510011831 25 303 0.0 0.0 0.00 0.00 0.00 100 1016.8
20260510011521 25 303 0.0 0.0 0.00 0.00 0.00 100 1016.8
20260510011319 25 303 0.0 0.0 0.00 0.00 0.00 100 1016.7
20260510011147 25 303 0.0 0.0 0.00 0.00 0.00 100 1016.7
20260510011021 25 303 0.0 0.0 0.00 0.00 0.00 100 1016.7
20260510010521 25 303 0.0 0.0 0.00 0.00 0.00 100 1016.7
20260510010153 26 303 0.0 0.0 0.00 0.00 0.00 100 1016.4
20260510010021 25 303 0.0 0.0 0.00 0.00 0.00 100 1016.6
20260510005619 26 303 0.0 1.6 0.00 0.00 0.00 100 1016.3
20260510005521 26 303 0.0 0.0 0.00 0.00 0.00 100 1016.5
20260510005500 26 315 0.0 6.4 0.00 0.00 0.00 100 1016.1
20260510005325 26 315 0.0 6.4 0.00 0.00 0.00 100 1016.1
20260510005021 26 303 0.0 0.0 0.00 0.00 0.00 100 1016.4
20260510004813 26 272 0.0 6.4 0.00 0.00 0.00 100 1016.0
20260510004521 26 303 0.0 1.6 0.00 0.00 0.00 100 1016.3
20260510004103 26 272 0.0 6.4 0.00 0.00 0.00 100 1016.0
20260510004021 26 315 0.0 6.4 0.00 0.00 0.00 100 1016.1
20260510003521 26 272 0.0 6.4 0.00 0.00 0.00 100 1016.0
20260510003445 27 246 4.8 6.4 0.00 0.00 0.00 100 1015.9
20260510003021 27 257 4.8 8.0 0.00 0.00 0.00 100 1015.9
20260510002521 27 246 4.8 6.4 0.00 0.00 0.00 100 1015.9
20260510002021 27 226 3.2 9.7 0.00 0.00 0.00 100 1015.8
20260510001521 27 254 4.8 8.0 0.00 0.00 0.00 100 1015.9
20260510001021 27 275 3.2 8.0 0.00 0.00 0.00 100 1015.9
20260510000521 27 277 3.2 6.4 0.00 0.00 0.00 100 1015.8
20260510000021 27 279 1.6 8.0 0.00 0.00 0.00 100 1015.8
20260509235932 28 271 3.2 6.4 0.00 0.00 0.00 100 1015.8
20260509235521 28 271 3.2 6.4 0.00 0.00 0.00 100 1015.8
20260509235021 28 268 3.2 8.0 0.00 0.00 0.00 100 1015.7
20260509234746 28 278 6.4 8.0 0.00 0.00 0.00 100 1015.6
20260509234521 28 277 3.2 9.7 0.00 0.00 0.00 100 1015.7
20260509234414 28 226 4.8 9.7 0.00 0.00 0.00 100 1015.5
20260509234021 28 278 6.4 8.0 0.00 0.00 0.00 100 1015.6
20260509233706 28 226 4.8 9.7 0.00 0.00 0.00 100 1015.5
20260509233521 28 226 4.8 9.7 0.00 0.00 0.00 100 1015.5
20260509233128 28 253 1.6 12.9 0.00 0.00 0.00 100 1015.5
20260509233021 28 253 1.6 12.9 0.00 0.00 0.00 100 1015.5
20260509232521 28 272 8.0 17.7 0.00 0.00 0.00 100 1015.5
20260509232021 28 237 1.6 12.9 0.00 0.00 0.00 100 1015.5
20260509231522 29 268 8.0 16.1 0.00 0.00 0.00 100 1015.4
20260509231514 29 279 4.8 16.1 0.00 0.00 0.00 100 1015.3
20260509231021 29 279 4.8 16.1 0.00 0.00 0.00 100 1015.3
20260509230521 29 240 9.7 12.9 0.00 0.00 0.00 100 1015.2
20260509230420 30 271 12.9 17.7 0.00 0.00 0.00 100 1015.1
20260509230210 30 271 12.9 17.7 0.00 0.00 0.00 100 1015.1
20260509230021 30 271 12.9 17.7 0.00 0.00 0.00 100 1015.1
20260509225521 30 262 14.5 16.1 0.00 0.00 0.00 100 1015.1
20260509225430 30 289 3.2 17.7 0.00 0.00 0.00 100 1015.0
20260509225021 30 289 3.2 17.7 0.00 0.00 0.00 100 1015.0
20260509224604 30 244 16.1 20.9 0.00 0.00 0.00 100 1015.0
20260509224521 30 244 16.1 20.9 0.00 0.00 0.00 100 1015.0
20260509224408 31 248 16.1 19.3 0.00 0.00 0.00 100 1015.0
20260509224149 30 187 1.6 16.1 0.00 0.00 0.00 100 1015.0
20260509224021 30 187 1.6 16.1 0.00 0.00 0.00 100 1015.0
20260509223522 30 223 16.1 20.9 0.00 0.00 0.00 100 1014.9
20260509223022 30 236 16.1 19.3 0.00 0.00 0.00 100 1015.0
20260509222622 31 248 16.1 19.3 0.00 0.00 0.00 100 1015.0
20260509222522 31 248 16.1 19.3 0.00 0.00 0.00 100 1015.0
20260509222149 31 244 3.2 17.7 0.00 0.00 0.00 100 1014.9
20260509222022 31 244 3.2 17.7 0.00 0.00 0.00 100 1014.9
20260509221634 31 281 14.5 17.7 0.00 0.00 0.00 100 1014.9
20260509221522 31 281 14.5 17.7 0.00 0.00 0.00 100 1014.9
20260509221150 31 240 16.1 17.7 0.00 0.00 0.00 100 1014.9
20260509221022 31 240 16.1 17.7 0.00 0.00 0.00 100 1014.9
20260509220522 31 251 9.7 20.9 0.00 0.00 0.00 100 1014.9
20260509220022 31 253 8.0 20.9 0.00 0.00 0.00 100 1014.8
20260509215522 31 254 8.0 22.5 0.00 0.00 0.00 100 1014.7
20260509215022 31 212 0.0 20.9 0.00 0.00 0.00 100 1014.7
20260509214522 32 215 9.7 17.7 0.00 0.00 0.00 100 1014.6
20260509214122 32 257 12.9 19.3 0.00 0.00 0.00 100 1014.6
20260509214022 32 257 12.9 19.3 0.00 0.00 0.00 100 1014.6
20260509213740 32 234 12.9 24.1 0.00 0.00 0.00 100 1014.6
20260509213703 32 234 12.9 24.1 0.00 0.00 0.00 100 1014.6
20260509213522 32 234 12.9 24.1 0.00 0.00 0.00 100 1014.6
20260509213118 32 244 20.9 24.1 0.00 0.00 0.00 100 1014.6
20260509213050 33 225 17.7 22.5 0.00 0.00 0.00 100 1014.5
20260509213022 32 244 20.9 24.1 0.00 0.00 0.00 100 1014.6
20260509212652 32 261 16.1 27.4 0.00 0.00 0.00 100 1014.6
20260509212522 32 261 16.1 27.4 0.00 0.00 0.00 100 1014.6
20260509212022 32 233 9.7 20.9 0.00 0.00 0.00 100 1014.5
20260509211639 32 267 17.7 25.7 0.00 0.00 0.00 100 1014.5
20260509211522 32 267 17.7 25.7 0.00 0.00 0.00 100 1014.5
20260509211022 32 202 14.5 27.4 0.00 0.00 0.00 100 1014.5
20260509210522 33 225 17.7 22.5 0.00 0.00 0.00 100 1014.5
20260509210236 33 267 14.5 24.1 0.00 0.00 0.00 100 1014.6
20260509210022 32 232 8.0 17.7 0.00 0.00 0.00 100 1014.5
20260509205652 33 271 16.1 25.7 0.00 0.00 0.00 100 1014.5
20260509205522 33 271 16.1 25.7 0.00 0.00 0.00 100 1014.5
20260509205022 33 270 9.7 22.5 0.00 0.00 0.00 100 1014.6
20260509204627 33 243 17.7 27.4 0.00 0.00 0.00 100 1014.6
20260509204522 33 243 17.7 27.4 0.00 0.00 0.00 100 1014.6
20260509204121 33 267 14.5 24.1 0.00 0.00 0.00 100 1014.6
20260509204022 33 267 14.5 24.1 0.00 0.00 0.00 100 1014.6
20260509203849 32 246 19.3 27.4 0.00 0.00 0.00 100 1014.7
20260509203647 32 246 19.3 27.4 0.00 0.00 0.00 100 1014.7
20260509203522 32 246 19.3 27.4 0.00 0.00 0.00 100 1014.7
20260509203137 33 205 17.7 22.5 0.00 0.00 0.00 100 1014.7
20260509203102 33 244 6.4 27.4 0.00 0.00 0.00 100 1014.6
20260509203022 33 205 17.7 22.5 0.00 0.00 0.00 100 1014.7
20260509202630 33 244 6.4 27.4 0.00 0.00 0.00 100 1014.6
20260509202523 33 244 6.4 27.4 0.00 0.00 0.00 100 1014.6
20260509202141 33 201 14.5 25.7 0.00 0.00 0.00 100 1014.7
20260509202022 33 201 14.5 25.7 0.00 0.00 0.00 100 1014.7
20260509201639 33 253 16.1 29.0 0.00 0.00 0.00 100 1014.7
20260509201522 33 253 16.1 29.0 0.00 0.00 0.00 100 1014.7
20260509201022 33 232 20.9 25.7 0.00 0.00 0.00 100 1014.8
20260509200522 33 251 17.7 27.4 0.00 0.00 0.00 100 1014.8
20260509200116 34 261 11.3 25.7 0.00 0.00 0.00 100 1014.7
20260509200022 34 261 11.3 25.7 0.00 0.00 0.00 100 1014.7
20260509195522 34 271 12.9 25.7 0.00 0.00 0.00 100 1014.9
20260509195236 34 251 12.9 29.0 0.00 0.00 0.00 100 1014.8
20260509195022 34 251 12.9 29.0 0.00 0.00 0.00 100 1014.8
20260509194522 34 279 9.7 29.0 0.00 0.00 0.00 100 1014.9
20260509194208 33 250 20.9 24.1 0.00 0.00 0.00 100 1015.1
20260509194022 33 250 20.9 24.1 0.00 0.00 0.00 100 1015.1
20260509193522 33 237 16.1 27.4 0.00 0.00 0.00 100 1015.1
20260509193249 33 248 19.3 27.4 0.00 0.00 0.00 100 1015.1
20260509193022 33 248 19.3 27.4 0.00 0.00 0.00 100 1015.1
20260509192654 33 255 14.5 24.1 0.00 0.00 0.00 100 1015.1
20260509192613 34 201 19.3 27.4 0.00 0.00 0.00 100 1015.1
20260509192522 33 255 14.5 24.1 0.00 0.00 0.00 100 1015.1
20260509192248 34 201 19.3 27.4 0.00 0.00 0.00 100 1015.1
20260509192022 34 201 19.3 27.4 0.00 0.00 0.00 100 1015.1
20260509191646 35 236 16.1 27.4 0.00 0.00 0.00 100 1015.2
20260509191522 35 236 16.1 27.4 0.00 0.00 0.00 100 1015.2
20260509191250 35 225 8.0 22.5 0.00 0.00 0.00 100 1015.3
20260509191022 35 225 8.0 22.5 0.00 0.00 0.00 100 1015.3
20260509190522 35 230 11.3 27.4 0.00 0.00 0.00 100 1015.4
20260509190324 34 246 11.3 30.6 0.00 0.00 0.00 100 1015.5
20260509190022 33 265 6.4 30.6 0.00 0.00 0.00 100 1015.6
20260509185749 33 319 8.0 29.0 0.00 0.00 0.00 100 1015.6
20260509185522 33 319 8.0 29.0 0.00 0.00 0.00 100 1015.6
20260509185251 34 225 9.7 20.9 0.00 0.00 0.00 100 1015.6
20260509185022 34 225 9.7 20.9 0.00 0.00 0.00 100 1015.6
20260509184657 34 246 11.3 30.6 0.00 0.00 0.00 100 1015.5
20260509184522 34 246 11.3 30.6 0.00 0.00 0.00 100 1015.5
20260509184239 34 153 11.3 29.0 0.00 0.00 0.00 100 1015.6
20260509184236 34 234 22.5 24.1 0.00 0.00 0.00 100 1015.5
20260509184234 35 247 14.5 22.5 0.00 0.00 0.00 100 1015.5
20260509184022 34 234 22.5 24.1 0.00 0.00 0.00 100 1015.5
20260509183522 34 274 12.9 30.6 0.00 0.00 0.00 100 1015.5
20260509183148 34 217 6.4 25.7 0.00 0.00 0.00 100 1015.6
20260509183022 34 217 6.4 25.7 0.00 0.00 0.00 100 1015.6
20260509182754 34 153 11.3 29.0 0.00 0.00 0.00 100 1015.6
20260509182522 34 153 11.3 29.0 0.00 0.00 0.00 100 1015.6
20260509182150 35 247 14.5 22.5 0.00 0.00 0.00 100 1015.5
20260509182022 35 247 14.5 22.5 0.00 0.00 0.00 100 1015.5
20260509181935 35 258 16.1 30.6 0.00 0.00 0.00 100 1015.6
20260509181631 35 258 16.1 30.6 0.00 0.00 0.00 100 1015.6
20260509181522 35 258 16.1 30.6 0.00 0.00 0.00 100 1015.6
20260509181244 33 195 11.3 25.7 0.00 0.00 0.00 100 1015.6
20260509181022 33 195 11.3 25.7 0.00 0.00 0.00 100 1015.6
20260509180643 34 234 12.9 22.5 0.00 0.00 0.00 100 1015.6
20260509180628 35 237 19.3 29.0 0.00 0.00 0.00 100 1015.5
20260509180548 35 257 12.9 24.1 0.00 0.00 0.00 100 1015.6
20260509180522 34 234 12.9 22.5 0.00 0.00 0.00 100 1015.6
20260509180022 35 237 19.3 29.0 0.00 0.00 0.00 100 1015.5
20260509175522 35 257 12.9 24.1 0.00 0.00 0.00 100 1015.6
20260509175149 35 253 14.5 25.7 0.00 0.00 0.00 100 1015.7
20260509175144 34 199 11.3 24.1 0.00 0.00 0.00 100 1015.7
20260509175022 35 253 14.5 25.7 0.00 0.00 0.00 100 1015.7
20260509174639 34 199 11.3 24.1 0.00 0.00 0.00 100 1015.7
20260509174523 34 199 11.3 24.1 0.00 0.00 0.00 100 1015.7
20260509174154 34 244 12.9 22.5 0.00 0.00 0.00 100 1015.8
20260509174148 33 232 12.9 22.5 0.00 0.00 0.00 100 1015.8
20260509174023 33 232 12.9 22.5 0.00 0.00 0.00 100 1015.8
20260509173523 34 213 16.1 22.5 0.00 0.00 0.00 100 1015.8
20260509173023 34 262 12.9 20.9 0.00 0.00 0.00 100 1015.8
20260509172737 34 244 12.9 22.5 0.00 0.00 0.00 100 1015.8
20260509172705 34 244 12.9 22.5 0.00 0.00 0.00 100 1015.8
20260509172523 34 244 12.9 22.5 0.00 0.00 0.00 100 1015.8
20260509172235 34 243 14.5 27.4 0.00 0.00 0.00 100 1015.7
20260509172023 34 243 14.5 27.4 0.00 0.00 0.00 100 1015.7
20260509171931 33 205 4.8 14.5 0.00 0.00 0.00 100 1015.8
20260509171630 34 281 6.4 20.9 0.00 0.00 0.00 100 1015.8
20260509171523 34 281 6.4 20.9 0.00 0.00 0.00 100 1015.8
20260509171236 33 205 4.8 14.5 0.00 0.00 0.00 100 1015.8
20260509171157 33 205 4.8 14.5 0.00 0.00 0.00 100 1015.8
20260509171023 33 205 4.8 14.5 0.00 0.00 0.00 100 1015.8
20260509170732 33 226 12.9 17.7 0.00 0.00 0.00 100 1016.0
20260509170656 33 226 12.9 17.7 0.00 0.00 0.00 100 1016.0
20260509170652 34 217 14.5 19.3 0.00 0.00 0.00 100 1015.9
20260509170523 33 226 12.9 17.7 0.00 0.00 0.00 100 1016.0
20260509170023 34 217 14.5 19.3 0.00 0.00 0.00 100 1015.9
20260509165523 34 277 9.7 20.9 0.00 0.00 0.00 100 1016.0
20260509165234 33 255 16.1 24.1 0.00 0.00 0.00 100 1016.1
20260509165023 33 255 16.1 24.1 0.00 0.00 0.00 100 1016.1
20260509164523 33 241 24.1 27.4 0.00 0.00 0.00 100 1016.2
20260509164256 33 246 8.0 22.5 0.00 0.00 0.00 100 1016.3
20260509164023 33 246 8.0 22.5 0.00 0.00 0.00 100 1016.3
20260509163523 32 237 11.3 19.3 0.00 0.00 0.00 100 1016.4
20260509163244 33 237 9.7 20.9 0.00 0.00 0.00 100 1016.3
20260509163238 33 206 12.9 25.7 0.00 0.00 0.00 100 1016.4
20260509163023 33 206 12.9 25.7 0.00 0.00 0.00 100 1016.4
20260509162650 33 237 9.7 20.9 0.00 0.00 0.00 100 1016.3
20260509162523 33 237 9.7 20.9 0.00 0.00 0.00 100 1016.3
20260509162144 32 184 8.0 25.7 0.00 0.00 0.00 100 1016.4
20260509162108 32 216 6.4 19.3 0.00 0.00 0.00 100 1016.5
20260509162023 32 184 8.0 25.7 0.00 0.00 0.00 100 1016.4
20260509161523 32 216 6.4 19.3 0.00 0.00 0.00 100 1016.5
20260509161203 33 246 14.5 17.7 0.00 0.00 0.00 100 1016.7
20260509161023 33 194 3.2 14.5 0.00 0.00 0.00 100 1016.6
20260509160523 33 246 14.5 17.7 0.00 0.00 0.00 100 1016.7
20260509160319 32 267 4.8 17.7 0.00 0.00 0.00 100 1016.7
20260509160023 32 206 8.0 19.3 0.00 0.00 0.00 100 1016.8
20260509155724 32 267 4.8 17.7 0.00 0.00 0.00 100 1016.7
20260509155523 32 267 4.8 17.7 0.00 0.00 0.00 100 1016.7
20260509155023 32 237 6.4 14.5 0.00 0.00 0.00 100 1016.8
20260509154735 31 206 12.9 14.5 0.00 0.00 0.00 100 1016.8
20260509154523 31 206 12.9 14.5 0.00 0.00 0.00 100 1016.8
20260509154235 31 149 6.4 14.5 0.00 0.00 0.00 100 1016.8
20260509154023 31 149 6.4 14.5 0.00 0.00 0.00 100 1016.8
20260509153726 31 158 4.8 17.7 0.00 0.00 0.00 100 1016.8
20260509153523 31 158 4.8 17.7 0.00 0.00 0.00 100 1016.8
20260509153023 32 234 4.8 12.9 0.00 0.00 0.00 100 1016.9
20260509152756 31 206 11.3 14.5 0.00 0.00 0.00 100 1016.9
20260509152523 31 206 11.3 14.5 0.00 0.00 0.00 100 1016.9
20260509152023 31 151 3.2 12.9 0.00 0.00 0.00 100 1017.1
20260509151651 30 181 8.0 11.3 0.00 0.00 0.00 100 1017.1
20260509151523 30 181 8.0 11.3 0.00 0.00 0.00 100 1017.1
20260509151149 30 203 6.4 12.9 0.00 0.00 0.00 100 1017.1
20260509151023 30 203 6.4 12.9 0.00 0.00 0.00 100 1017.1
20260509150813 31 237 6.4 11.3 0.00 0.00 0.00 100 1017.1
20260509150733 31 237 6.4 11.3 0.00 0.00 0.00 100 1017.1
20260509150523 31 237 6.4 11.3 0.00 0.00 0.00 100 1017.1
20260509150334 30 181 6.4 12.9 0.00 0.00 0.00 100 1017.3
20260509150330 30 137 1.6 12.9 0.00 0.00 0.00 100 1017.2
20260509150228 30 181 6.4 12.9 0.00 0.00 0.00 100 1017.3
20260509150023 30 181 6.4 12.9 0.00 0.00 0.00 100 1017.3
20260509145723 30 137 1.6 12.9 0.00 0.00 0.00 100 1017.2
20260509145523 30 137 1.6 12.9 0.00 0.00 0.00 100 1017.2
20260509145023 30 227 4.8 9.7 0.00 0.00 0.00 100 1017.3
20260509144736 30 184 6.4 9.7 0.00 0.00 0.00 100 1017.2
20260509144654 30 184 6.4 9.7 0.00 0.00 0.00 100 1017.2
20260509144523 30 184 6.4 9.7 0.00 0.00 0.00 100 1017.2
20260509144023 30 196 4.8 11.3 0.00 0.00 0.00 100 1017.1
20260509143900 30 230 4.8 11.3 0.00 0.00 0.00 100 1017.1
20260509143523 30 177 6.4 11.3 0.00 0.00 0.00 100 1017.0